Find Starlink 2254

NORAD ID: 48005 Int'l Des: 2021-024 Owner: SPXS Country: US Constellation: starlink decayed
LEOCIRCULAR
Vis

Historical Track — Aug 24, 2024

Loading 3D Globe...

About Starlink 2254

Description loading...

Altitude History

Loading altitude history...

Two-Line Element Set

1 48005U 21024AE 24237.13628725 .34741699 12316-4 37155-2 0 9991
2 48005 53.0256 254.3820 0002913 339.6281 138.5509 16.36730350190400
Epoch: Aug 24, 2024 • Age: 14840 hours

Current Status

Position data unavailable
Launch Date Mar 24, 2021
Age 5.1 years
Decay Date Aug 24, 2024
Type internet

Technical Details

Classification Payload
Mass 260.00 kg
Dry Mass 248.00 kg
Total Mass 260.00 kg
Length 0.20 m
Diameter 2.80 m
Span 9.00 m
Shape Box + pan
Manufacturer SPXS
Bus Type Starlink
Phase Status Unknown Transfer Status
Owner/State SPXS/US

Most Searched